Date String (YYYY-MM-DD hh:mm:ss) UTC,Instrument flags,absolute air pressure of the measurement (hPa),sample flow rate (lpm),inlet stack bypass flow (lpm),air temperature of the measurement (°C),ambient temperature measured by the external sensor (°C),aerosol sample conditioner tube jacket temperature (°C),OPC LED temperature (°C),internal box temperature (°C),relative humidity of the measurement (%),span deviation,mass concentration of particles derived from Lorenz-Mie calculation of OPC scattering (μg/m³),mass concentration of particles derived from Lorenz-Mie calculation of OPC scattering (μg/m³),mass concentration of particles derived from Lorenz-Mie calculation of OPC scattering (μg/m³)
DateTimeUTC,F1_M11,P_M11,Q1_M11,Q2_M11,T1_M11,T2_M11,T3_M11,T4_M11,T5_M11,U1_M11,ZSPAN_M11,X2_M11,X0_M11,X1_M11
2024-06-01 03:00:00,SystemResetWarning,0828.4,5.00,000.00,030.8,030.1,000.0,039.1,032.6,013.3,0000.0,0002.27,0009.00,0001.54
2024-06-01 03:01:00,SystemResetWarning,0828.5,5.00,000.00,030.9,030.2,000.0,039.1,032.6,013.3,0000.0,0002.28,0008.41,0001.54
2024-06-01 03:02:00,SystemResetWarning,0828.6,4.99,000.00,030.9,030.2,000.0,039.1,032.6,013.3,0000.0,0002.26,0007.80,0001.53
2024-06-01 03:03:00,SystemResetWarning,0828.6,5.01,000.00,030.9,030.2,000.0,039.1,032.6,013.3,0000.0,0002.25,0007.71,0001.53
2024-06-01 03:04:00,SystemResetWarning,0828.6,5.01,000.00,030.9,030.2,000.0,039.1,032.6,013.3,0000.0,0002.28,0007.06,0001.53
2024-06-01 03:05:00,SystemResetWarning,0828.6,5.00,000.00,030.9,030.2,000.0,039.1,032.7,013.3,0000.0,0002.29,0006.92,0001.53
2024-06-01 03:06:00,SystemResetWarning,0828.6,5.00,000.00,030.9,030.2,000.0,039.2,032.6,013.3,0000.0,0002.25,0005.71,0001.52
2024-06-01 03:07:00,SystemResetWarning,0828.6,4.99,000.00,030.9,030.2,000.0,039.2,032.7,013.4,0000.0,0002.23,0005.62,0001.51
2024-06-01 03:08:00,SystemResetWarning,0828.6,5.00,000.00,030.9,030.2,000.0,039.2,032.7,013.4,0000.0,0002.25,0005.68,0001.51
2024-06-01 03:09:00,SystemResetWarning,0828.6,5.01,000.00,031.0,030.2,000.0,039.2,032.7,013.4,0000.0,0002.23,0005.56,0001.50
2024-06-01 03:10:00,SystemResetWarning,0828.6,5.01,000.00,031.0,030.3,000.0,039.2,032.7,013.2,0000.0,0002.17,0005.08,0001.50
2024-06-01 03:11:00,SystemResetWarning,0828.6,5.00,000.00,031.0,030.3,000.0,039.2,032.7,013.2,0000.0,0002.16,0004.71,0001.50
2024-06-01 03:12:00,SystemResetWarning,0828.6,5.00,000.00,031.0,030.3,000.0,039.2,032.7,013.2,0000.0,0002.18,0004.69,0001.52
2024-06-01 03:13:00,SystemResetWarning,0828.7,5.00,000.00,031.0,030.3,000.0,039.2,032.7,013.2,0000.0,0002.20,0004.87,0001.52
2024-06-01 03:14:00,SystemResetWarning,0828.6,5.00,000.00,031.0,030.3,000.0,039.3,032.7,013.3,0000.0,0002.24,0005.08,0001.53
2024-06-01 03:15:00,SystemResetWarning,0828.7,4.99,000.00,031.0,030.3,000.0,039.3,032.7,013.3,0000.0,0002.23,0005.18,0001.53
2024-06-01 03:16:00,SystemResetWarning,0828.6,4.99,000.00,031.0,030.3,000.0,039.3,032.7,013.3,0000.0,0002.28,0005.43,0001.54
2024-06-01 03:17:00,SystemResetWarning,0828.6,5.00,000.00,031.0,030.3,000.0,039.3,032.8,013.2,0000.0,0002.33,0005.58,0001.55
2024-06-01 03:18:00,SystemResetWarning,0828.6,5.00,000.00,031.1,030.3,000.0,039.3,032.8,013.2,0000.0,0002.34,0005.87,0001.55
2024-06-01 03:19:00,SystemResetWarning,0828.6,5.01,000.00,031.1,030.3,000.0,039.3,032.8,013.3,0000.0,0002.33,0006.85,0001.56
2024-06-01 03:20:00,SystemResetWarning,0828.6,5.01,000.00,031.1,030.4,000.0,039.3,032.8,013.3,0000.0,0002.34,0006.95,0001.56
2024-06-01 03:21:00,SystemResetWarning,0828.7,5.00,000.00,031.1,030.4,000.0,039.3,032.8,013.2,0000.0,0002.38,0006.50,0001.57
2024-06-01 03:22:00,SystemResetWarning,0828.7,5.00,000.00,031.1,030.4,000.0,039.3,032.8,013.2,0000.0,0002.42,0006.11,0001.56
2024-06-01 03:23:00,SystemResetWarning,0828.7,5.00,000.00,031.1,030.4,000.0,039.3,032.8,013.1,0000.0,0002.43,0006.53,0001.56
2024-06-01 03:24:00,SystemResetWarning,0828.7,5.00,000.00,031.1,030.4,000.0,039.4,032.8,013.0,0000.0,0002.42,0006.70,0001.56
2024-06-01 03:25:00,SystemResetWarning,0828.7,5.00,000.00,031.1,030.4,000.0,039.4,032.8,013.1,0000.0,0002.38,0006.73,0001.55
2024-06-01 03:26:00,SystemResetWarning,0828.7,4.99,000.00,031.1,030.4,000.0,039.4,032.8,013.1,0000.0,0002.35,0007.76,0001.54
2024-06-01 03:27:00,SystemResetWarning,0828.7,4.99,000.00,031.1,030.4,000.0,039.4,032.8,013.0,0000.0,0002.30,0007.80,0001.51
2024-06-01 03:28:00,SystemResetWarning,0828.7,5.00,000.00,031.1,030.4,000.0,039.4,032.8,013.0,0000.0,0002.26,0008.17,0001.51
2024-06-01 03:29:00,SystemResetWarning,0828.8,5.00,000.00,031.1,030.4,000.0,039.4,032.8,012.9,0000.0,0002.28,0008.42,0001.51
2024-06-01 03:30:00,SystemResetWarning,0828.7,5.00,000.00,031.1,030.4,000.0,039.4,032.9,012.9,0000.0,0002.27,0008.21,0001.52
2024-06-01 03:31:00,SystemResetWarning,0828.9,5.01,000.00,031.1,030.4,000.0,039.4,032.8,012.8,0000.0,0002.25,0008.17,0001.51
2024-06-01 03:32:00,SystemResetWarning,0828.9,5.00,000.00,031.2,030.4,000.0,039.4,032.9,012.8,0000.0,0002.24,0008.15,0001.51
2024-06-01 03:33:00,SystemResetWarning,0828.9,4.99,000.00,031.2,030.4,000.0,039.4,032.9,012.9,0000.0,0002.19,0008.13,0001.51
2024-06-01 03:34:00,SystemResetWarning,0829.0,5.00,000.00,031.2,030.4,000.0,039.4,032.9,012.9,0000.0,0002.23,0008.09,0001.50
2024-06-01 03:35:00,SystemResetWarning,0829.0,4.99,000.00,031.2,030.4,000.0,039.4,032.9,012.9,0000.0,0002.32,0008.04,0001.51
2024-06-01 03:36:00,SystemResetWarning,0829.1,5.01,000.00,031.2,030.4,000.0,039.5,032.9,012.9,0000.0,0002.39,0008.02,0001.52
2024-06-01 03:37:00,SystemResetWarning,0829.1,5.00,000.00,031.2,030.5,000.0,039.5,032.9,013.2,0000.0,0002.43,0006.94,0001.55
2024-06-01 03:38:00,SystemResetWarning,0829.1,5.01,000.00,031.2,030.5,000.0,039.5,032.9,013.7,0000.0,0002.52,0007.09,0001.57
2024-06-01 03:39:00,SystemResetWarning,0829.1,5.00,000.00,031.2,030.5,000.0,039.5,032.9,013.8,0000.0,0002.56,0006.93,0001.58
2024-06-01 03:40:00,SystemResetWarning,0829.1,4.99,000.00,031.2,030.5,000.0,039.5,032.9,014.0,0000.0,0002.56,0007.62,0001.59
2024-06-01 03:41:00,SystemResetWarning,0829.0,4.99,000.00,031.3,030.5,000.0,039.5,033.0,014.1,0000.0,0002.59,0007.24,0001.60
2024-06-01 03:42:00,SystemResetWarning,0829.0,5.00,000.00,031.3,030.5,000.0,039.5,033.0,014.1,0000.0,0002.64,0007.29,0001.62
2024-06-01 03:43:00,SystemResetWarning,0829.1,5.00,000.00,031.3,030.6,000.0,039.5,033.0,014.1,0000.0,0002.66,0007.66,0001.63
2024-06-01 03:44:00,SystemResetWarning,0829.1,5.00,000.00,031.3,030.6,000.0,039.5,033.0,014.1,0000.0,0002.72,0008.11,0001.64
2024-06-01 03:45:00,SystemResetWarning,0829.1,5.00,000.00,031.3,030.6,000.0,039.6,033.0,013.9,0000.0,0002.70,0008.05,0001.65
2024-06-01 03:46:00,SystemResetWarning,0829.1,5.01,000.00,031.3,030.6,000.0,039.6,033.0,013.9,0000.0,0002.63,0007.93,0001.65
2024-06-01 03:47:00,SystemResetWarning,0829.1,5.00,000.00,031.3,030.6,000.0,039.6,033.0,014.0,0000.0,0002.66,0007.95,0001.65
2024-06-01 03:48:00,SystemResetWarning,0829.1,5.00,000.00,031.3,030.6,000.0,039.6,033.0,013.9,0000.0,0002.71,0008.08,0001.66
2024-06-01 03:49:00,SystemResetWarning,0829.1,5.01,000.00,031.4,030.6,000.0,039.6,033.0,014.0,0000.0,0002.68,0008.06,0001.66
2024-06-01 03:50:00,SystemResetWarning,0829.1,5.00,000.00,031.4,030.6,000.0,039.6,033.0,013.6,0000.0,0002.64,0007.67,0001.66
2024-06-01 03:51:00,SystemResetWarning,0829.1,4.99,000.00,031.4,030.6,000.0,039.6,033.0,013.5,0000.0,0002.61,0006.42,0001.65
2024-06-01 03:52:00,SystemResetWarning,0829.1,5.00,000.00,031.4,030.7,000.0,039.6,033.1,013.8,0000.0,0002.66,0006.77,0001.65
2024-06-01 03:53:00,SystemResetWarning,0829.1,5.01,000.00,031.4,030.7,000.0,039.6,033.1,013.6,0000.0,0002.65,0008.26,0001.67
2024-06-01 03:54:00,SystemResetWarning,0829.1,5.01,000.00,031.4,030.7,000.0,039.6,033.1,013.4,0000.0,0002.60,0008.42,0001.67
2024-06-01 03:55:00,SystemResetWarning,0829.1,4.99,000.00,031.4,030.7,000.0,039.7,033.1,013.4,0000.0,0002.55,0008.21,0001.66
2024-06-01 03:56:00,SystemResetWarning,0829.1,4.99,000.00,031.4,030.7,000.0,039.7,033.1,013.4,0000.0,0002.52,0008.24,0001.66
2024-06-01 03:57:00,SystemResetWarning,0829.1,5.00,000.00,031.3,029.5,000.0,039.7,032.4,013.6,0000.0,0002.59,0008.36,0001.65
2024-06-01 03:58:00,SystemResetWarning,0829.1,5.01,000.00,030.8,027.0,000.0,039.7,031.3,014.1,0000.0,0002.57,0008.32,0001.65
2024-06-01 03:59:00,SystemResetWarning,0829.0,5.02,000.00,030.5,026.8,000.0,039.6,031.0,014.3,0000.0,0002.52,0008.54,0001.65
